Weather History for Daggett-Barstow, CA

Change the Weather History Date:

Wednesday, December 5, 2012

  Actual Average Record
Temperature  
Mean Temperature 62 °F -  
Max Temperature 78 °F 63 °F 78 °F (2012)
Min Temperature 45 °F 39 °F 25 °F (2011)
Degree Days  
Heating Degree Days 4    
Growing Degree Days 12 (Base 50)    
Moisture  
Dew Point 35 °F    
Average Humidity 44    
Maximum Humidity 71    
Minimum Humidity 17    
Precipitation  
Precipitation 0.00 in - - ()
Sea Level Pressure  
Sea Level Pressure 30.05 in    
Wind  
Wind Speed 10 mph (West)    
Max Wind Speed 15 mph    
Max Gust Speed 21 mph    
Visibility 10 miles    
Events      
Averages and records for this station are not official NWS values.
T = Trace of Precipitation, MM = Missing Value Source: NWS Daily Summary

Daily Weather History Graph

Daily Weather History Graph

Search for Another Location

Airport:

Trip Planner

Search our weather history database for the weather conditions in past years. The results will help you decide how hot, cold, wet, or windy it might be!

Date:

Astronomy

Dec. 05, 2012 Rise Set
Actual Time 6:40 AM PST 4:35 PM PST
Civil Twilight 6:12 AM PST 5:03 PM PST
Nautical Twilight 5:41 AM PST 5:34 PM PST
Astronomical Twilight 5:10 AM PST 6:05 PM PST
Moon 11:17 PM PST (12/5) 11:17 AM PST (12/5)
Length of Visible Light 10h 50m
Length of Day
9h 55m
Waning Gibbous, 58% of the Moon is Illuminated
Dec 5
Waning Gibbous
Dec 6
Last Quarter
Dec 13
New
Dec 19
First Quarter
Dec 28
Full

Hourly Weather History & Observations

Time (PST) Temp. Windchill Dew Point Humidity Pressure Visibility Wind Dir Wind Speed Gust Speed Precip Events Conditions
12:50 AM 48.9 °F - 37.9 °F 66% 30.17 in 10.0 mi West 11.5 mph - N/A   Clear
1:50 AM 46.9 °F - 37.0 °F 68% 30.16 in 10.0 mi WNW 8.1 mph - N/A   Clear
2:50 AM 45.0 °F 40.6 °F 36.0 °F 71% 30.14 in 10.0 mi West 8.1 mph - N/A   Clear
3:50 AM 45.0 °F 39.7 °F 36.0 °F 71% 30.12 in 10.0 mi West 10.4 mph - N/A   Clear
4:50 AM 45.0 °F 40.1 °F 36.0 °F 71% 30.12 in 10.0 mi West 9.2 mph - N/A   Clear
6:50 AM 46.9 °F - 36.0 °F 66% 30.13 in 10.0 mi West 9.2 mph - N/A   Clear
7:50 AM 51.1 °F - 35.1 °F 54% 30.13 in 10.0 mi WSW 15.0 mph - N/A   Clear
8:50 AM 55.9 °F - 33.1 °F 42% 30.12 in 10.0 mi West 15.0 mph - N/A   Clear
9:50 AM 61.0 °F - 30.9 °F 32% 30.11 in 10.0 mi WSW 12.7 mph - N/A   Clear
10:50 AM 66.0 °F - 27.0 °F 23% 30.08 in 10.0 mi West 8.1 mph - N/A   Clear
11:50 AM 73.0 °F - 26.1 °F 17% 30.04 in 10.0 mi West 6.9 mph - N/A   Clear
12:50 PM 75.9 °F - 30.9 °F 19% 29.99 in 10.0 mi WNW 12.7 mph 19.6 mph N/A   Clear
1:50 PM 77.0 °F - 32.0 °F 19% 29.97 in 10.0 mi WNW 15.0 mph 20.7 mph N/A   Clear
2:50 PM 78.1 °F - 34.0 °F 20% 29.96 in 10.0 mi West 10.4 mph - N/A   Clear
4:50 PM 73.9 °F - 37.9 °F 27% 29.96 in 10.0 mi West 13.8 mph - N/A   Clear
5:50 PM 70.0 °F - 39.9 °F 33% 29.96 in 10.0 mi West 10.4 mph - N/A   Clear
7:50 PM 60.1 °F - 36.0 °F 41% 30.00 in 10.0 mi Calm Calm - N/A   Clear
8:50 PM 60.1 °F - 37.9 °F 44% 29.99 in 10.0 mi West 6.9 mph - N/A   Clear
9:50 PM 55.9 °F - 37.0 °F 49% 29.99 in 10.0 mi NNW 4.6 mph - N/A   Clear
10:50 PM 55.9 °F - 36.0 °F 47% 29.99 in 10.0 mi NW 4.6 mph - N/A   Clear
11:50 PM 55.0 °F - 33.1 °F 43% 29.98 in 10.0 mi WNW 6.9 mph - N/A   Clear